Whitefield, NH

6:39 PM EST on February 09, 2016 (GMT -0500)
Mount Washington Regional

Weather History for KHIE - November, 2012

Change the Weather History Date:

Saturday, November 10, 2012

  Actual Average Record
Temperature  
Mean Temperature 34 °F -  
Max Temperature 44 °F 40 °F 64 °F (2002)
Min Temperature 25 °F 23 °F 7 °F (2004)
Degree Days  
Heating Degree Days 30    
Moisture  
Dew Point 24 °F    
Average Humidity 64    
Maximum Humidity 85    
Minimum Humidity 32    
Precipitation  
Precipitation 0.00 in - - ()
Sea Level Pressure  
Sea Level Pressure 30.29 in    
Wind  
Wind Speed 4 mph (WNW)    
Max Wind Speed 12 mph    
Max Gust Speed -    
Visibility 10 miles    
Events      
Averages and records for this station are not official NWS values.
T = Trace of Precipitation, MM = Missing Value Source: NWS Daily Summary

Daily Weather History Graph

Daily Weather History Graph

Search for Another Location

Airport or City:

Trip Planner

Search our weather history database for the weather conditions in past years. The results will help you decide how hot, cold, wet, or windy it might be!

Date:

Astronomy

Nov. 10, 2012 Rise Set
Actual Time 6:36 AM EST 4:23 PM EST
Civil Twilight 6:05 AM EST 4:54 PM EST
Nautical Twilight 5:30 AM EST 5:29 PM EST
Astronomical Twilight 4:56 AM EST 6:03 PM EST
Moon 2:29 AM EST (11/10) 2:15 PM EST (11/10)
Length of Visible Light 10h 49m
Length of Day
9h 47m
Waning Crescent, 14% of the Moon is Illuminated
Nov 10
Waning Crescent
Nov 13
New
Nov 20
First Quarter
Nov 28
Full
Dec 6
Last Quarter

Hourly Weather History & Observations

Time (EST) Temp. Windchill Dew Point Humidity Pressure Visibility Wind Dir Wind Speed Gust Speed Precip Events Conditions
12:16 AM 37.4 °F 34.9 °F 30.2 °F 75% 30.07 in 10.0 mi SSW 3.5 mph - N/A   Overcast
12:52 AM 37.9 °F 35.5 °F 30.0 °F 73% 30.11 in 10.0 mi SSW 3.5 mph - N/A   Overcast
1:52 AM 37.9 °F 35.5 °F 30.9 °F 76% 30.12 in 10.0 mi SW 3.5 mph - N/A   Overcast
2:45 AM 37.4 °F - 30.2 °F 75% 30.10 in 10.0 mi Calm Calm - N/A   Overcast
2:52 AM 37.9 °F - 30.9 °F 76% 30.13 in 10.0 mi Calm Calm - N/A   Overcast
3:52 AM 39.0 °F 34.0 °F 28.9 °F 67% 30.15 in 10.0 mi West 6.9 mph - N/A   Overcast
4:52 AM 39.0 °F 31.8 °F 28.0 °F 65% 30.17 in 10.0 mi West 11.5 mph - N/A   Mostly Cloudy
5:52 AM 37.0 °F 31.0 °F 27.0 °F 67% 30.19 in 10.0 mi West 8.1 mph - N/A   Partly Cloudy
6:52 AM 36.0 °F 31.1 °F 26.1 °F 67% 30.24 in 10.0 mi West 5.8 mph - N/A   Mostly Cloudy
7:52 AM 37.0 °F 31.6 °F 24.1 °F 59% 30.27 in 10.0 mi WNW 6.9 mph - N/A   Overcast
8:52 AM 39.0 °F 34.0 °F 24.1 °F 55% 30.29 in 10.0 mi WNW 6.9 mph - N/A   Overcast
9:52 AM 39.9 °F 33.9 °F 24.1 °F 53% 30.31 in 10.0 mi NW 9.2 mph - N/A   Partly Cloudy
10:52 AM 41.0 °F 37.1 °F 21.9 °F 47% 30.32 in 10.0 mi WNW 5.8 mph - N/A   Clear
11:52 AM 44.1 °F 40.1 °F 21.0 °F 40% 30.31 in 10.0 mi NNW 6.9 mph - N/A   Clear
12:52 PM 44.1 °F 39.5 °F 19.0 °F 37% 30.32 in 10.0 mi NNW 8.1 mph - N/A   Clear
1:52 PM 44.1 °F 39.5 °F 17.1 °F 34% 30.32 in 10.0 mi NNW 8.1 mph - N/A   Clear
2:52 PM 44.1 °F 41.5 °F 16.0 °F 32% 30.33 in 10.0 mi North 4.6 mph - N/A   Clear
3:52 PM 41.0 °F 38.0 °F 18.0 °F 40% 30.35 in 10.0 mi NNE 4.6 mph - N/A   Clear
4:52 PM 32.0 °F - 21.0 °F 64% 30.38 in 10.0 mi Calm Calm - N/A   Clear
5:52 PM 28.9 °F - 21.0 °F 72% 30.41 in 10.0 mi Calm Calm - N/A   Clear
6:52 PM 28.0 °F - 21.0 °F 75% 30.44 in 10.0 mi Calm Calm - N/A   Clear
7:52 PM 27.0 °F - 21.0 °F 78% 30.46 in 10.0 mi Calm Calm - N/A   Clear
8:52 PM 25.0 °F - 21.0 °F 85% 30.47 in 10.0 mi Calm Calm - N/A   Clear
9:52 PM 26.1 °F - 21.0 °F 81% 30.46 in 10.0 mi Calm Calm - N/A   Partly Cloudy
10:52 PM 28.0 °F 22.8 °F 23.0 °F 81% 30.44 in 10.0 mi WNW 4.6 mph - N/A   Overcast
11:52 PM 28.9 °F - 24.1 °F 82% 30.44 in 10.0 mi Calm Calm - N/A   Overcast